Wind_Speed
16 16 16 16 17 17 17 18 18 18 19 19 18 18 19 20 21 21 22 22 22 22 22 23 23 23 23 24 24 25 26 26 27 28 29 29 29 28 27 28 27 27 28 28
16 16 16 16 16 16 17 17 17 18 18 17 17 17 17 18 18 19 19 19 19 19 19 20 20 20 20 20 20 21 22 22 23 24 25 25 23 22 20 20 19 19 19 20
16 16 16 15 16 16 16 17 17 17 17 17 16 17 16 16 16 17 17 17 17 17 17 17 17 17 17 17 18 18 18 19 20 21 21 21 19 17 16 14 13 13 14 15
17 17 16 15 16 16 16 16 16 17 17 16 16 16 15 15 15 15 15 15 16 16 16 16 15 15 16 15 16 16 17 17 18 18 18 18 17 15 14 12 11 10 10 10
17 17 16 16 16 16 16 16 16 16 16 16 15 15 14 14 14 14 15 15 15 15 15 15 14 14 15 15 15 15 15 16 16 16 16 16 15 14 12 11 11 10 9 9
16 17 17 17 17 16 16 16 16 16 15 15 14 14 14 13 13 13 14 14 14 14 14 14 14 14 14 14 14 13 14 14 14 15 15 14 14 14 13 11 11 10 9 9
17 17 17 17 17 17 16 16 15 16 16 15 14 14 13 13 13 13 13 13 13 13 13 13 13 13 13 13 13 12 13 13 13 14 14 13 13 13 12 12 11 10 10 11
18 19 18 18 17 17 16 15 15 16 15 15 15 14 13 13 13 13 13 13 13 13 12 12 13 13 13 13 13 12 13 13 13 13 13 13 13 13 13 12 12 12 12 13
18 18 18 18 18 17 17 17 16 16 16 15 15 14 14 13 13 13 13 13 13 13 13 13 13 12 12 12 12 12 12 12 13 13 13 13 13 13 13 14 14 14 15 16
18 18 18 18 18 18 18 18 17 17 17 16 15 15 14 14 14 13 13 13 13 13 13 13 12 12 11 11 11 11 12 12 13 13 14 14 14 14 15 15 15 16 17 19
19 19 19 19 19 18 19 19 18 18 17 17 16 16 15 15 14 13 13 13 13 13 13 13 12 12 12 11 11 12 12 13 14 14 14 15 15 16 16 17 18 19 20 22
20 20 20 20 20 20 19 19 19 19 19 18 18 17 16 16 15 14 14 14 13 13 13 13 12 12 13 12 12 13 13 14 15 15 16 16 17 18 19 20 21 22 23 25
20 21 22 21 21 21 20 20 20 20 19 19 19 18 17 16 16 15 14 14 14 14 13 13 13 13 13 14 14 14 15 16 16 17 17 18 19 20 21 22 23 24 26 27
21 21 22 22 22 22 22 21 21 21 20 20 19 19 18 17 17 16 16 15 15 14 14 15 15 15 15 15 16 16 17 17 18 18 19 20 21 22 23 24 25 27 28 29
21 21 22 22 22 22 22 22 22 21 21 21 20 20 19 19 18 18 17 17 16 16 16 16 16 17 17 17 18 18 18 19 19 20 21 22 23 24 25 26 27 28 30 31
21 22 22 22 23 23 23 23 23 23 22 22 22 21 21 21 20 20 19 19 18 18 18 18 18 18 19 19 19 19 20 20 21 21 22 23 24 25 27 28 29 30 32 33
21 22 22 22 22 22 23 23 23 23 23 22 22 22 22 22 22 21 21 20 20 20 20 20 20 20 20 20 20 21 21 21 22 23 24 25 26 27 28 29 30 32 33 35
20 21 22 22 22 22 22 22 22 23 23 23 23 23 23 22 22 22 22 22 22 22 22 22 22 21 21 21 22 22 22 23 24 24 25 26 27 28 29 31 32 33 35 36
19 19 20 21 21 21 21 21 21 22 22 22 23 23 23 23 23 23 23 23 24 23 23 23 23 23 23 23 23 23 24 24 25 25 26 27 28 29 30 32 33 34 36 37
17 18 19 20 21 21 22 22 22 21 22 22 23 23 23 23 24 24 24 24 24 24 24 24 24 24 24 24 24 25 25 25 26 27 27 28 29 30 31 33 34 35 36 38
16 16 17 19 20 21 21 21 21 21 22 22 22 23 23 23 23 23 24 24 24 24 24 24 25 25 25 25 26 26 26 26 27 27 28 29 30 31 32 33 35 36 37 39
13 14 15 17 18 19 20 20 21 21 22 22 22 22 23 23 23 23 24 24 24 23 24 25 25 25 26 26 26 26 27 27 27 28 29 30 31 32 33 34 35 37 38 40
13 13 14 14 15 16 17 18 19 20 20 21 22 22 23 23 23 24 23 24 24 24 25 25 26 26 26 26 27 27 28 28 29 30 30 31 32 33 34 35 36 38 39 40
12 13 13 14 14 15 16 17 18 19 19 20 21 22 23 23 24 24 25 25 25 26 26 26 27 27 27 27 28 29 29 30 30 31 32 32 33 34 35 36 37 38 39 40
14 14 14 15 15 16 17 18 19 20 21 22 22 23 23 24 25 26 26 27 28 28 28 28 27 28 29 29 30 30 31 31 32 32 33 34 34 35 36 37 38 38 39 40
18 18 18 18 18 18 18 19 20 21 22 23 24 25 25 26 27 28 29 29 29 29 29 29 29 30 30 31 31 32 32 32 33 33 34 34 35 35 36 37 37 38 39 40
21 21 21 21 21 21 22 22 23 23 24 25 26 27 27 28 29 30 30 31 32 32 33 33 33 33 33 33 33 34 34 34 34 34 35 35 35 35 36 36 37 38 39 40
Wind_Direction
206 208 209 209 210 209 210 211 214 219 227 231 234 237 240 243 247 251 255 259 264 268 271 273 275 279 284 290 294 299 303 305 309 312 314 311 308 305 299 293 285 277 271 268
206 207 210 212 213 213 215 217 222 228 234 238 241 242 243 246 249 253 258 262 266 269 271 273 276 280 286 292 298 306 310 312 316 318 320 320 317 313 309 302 293 285 276 271
212 214 214 216 218 219 221 225 229 234 238 241 245 246 247 249 252 257 261 264 268 271 272 274 277 281 288 294 300 307 314 319 322 325 326 325 324 321 319 313 302 288 285 278
217 219 222 221 222 225 228 231 234 237 240 242 245 246 247 250 254 257 261 265 270 273 273 274 276 281 288 295 302 308 315 321 326 328 332 333 334 330 328 328 323 313 300 285
222 225 226 226 228 230 232 234 236 239 242 241 241 244 246 251 255 258 262 268 271 274 274 273 276 282 289 296 302 309 316 322 325 328 332 336 337 339 335 328 327 320 309 298
229 230 230 229 231 234 235 237 237 238 237 235 238 241 245 250 254 259 264 267 271 273 274 274 277 282 289 295 300 306 315 322 326 329 329 331 336 339 341 337 332 327 317 314
233 232 232 232 234 234 235 236 235 234 232 233 236 240 245 249 254 261 264 268 271 273 274 276 279 282 286 292 296 303 312 317 323 327 329 331 334 337 338 338 335 331 323 319
234 234 233 232 234 234 235 235 233 232 231 232 235 240 244 251 258 263 265 267 269 272 275 279 281 284 286 290 294 300 307 312 318 323 326 329 332 333 333 334 332 328 322 318
235 235 234 233 233 232 232 233 233 233 233 234 237 242 247 254 260 264 265 266 269 274 277 280 283 285 286 289 293 299 305 310 315 319 324 327 328 328 328 328 327 325 322 319
235 234 233 232 231 231 232 234 235 235 236 238 241 245 250 255 259 262 264 267 272 275 278 280 281 282 284 288 292 298 305 310 314 316 319 322 324 324 323 323 322 321 319 317
236 235 233 232 232 233 233 235 236 237 239 241 244 247 251 255 258 261 264 268 270 274 276 277 279 279 281 285 291 298 304 308 312 315 318 320 320 319 319 319 318 318 317 316
236 236 234 233 234 234 235 236 237 238 240 243 246 248 251 254 257 261 264 268 269 272 275 275 275 278 279 283 289 296 300 304 309 312 315 316 316 316 316 317 317 317 316 316
236 236 235 234 235 236 236 237 238 239 241 245 247 248 250 254 255 258 263 267 269 271 273 274 275 277 278 281 287 294 298 301 305 308 310 311 312 313 314 315 315 315 315 315
237 237 236 236 236 237 238 239 241 242 244 245 247 248 251 254 254 256 260 266 268 269 271 274 276 276 279 282 287 291 296 299 301 304 306 308 310 312 313 314 315 315 315 316
239 238 237 237 239 240 240 241 242 243 245 246 248 249 252 254 254 256 258 263 265 268 272 275 276 277 279 283 286 289 293 296 299 301 304 306 308 310 312 314 315 315 316 317
240 240 239 240 241 243 243 243 244 245 246 248 249 251 253 254 256 257 259 261 264 267 272 274 275 277 280 282 285 288 291 294 297 300 303 305 307 309 311 313 314 315 316 318
241 240 240 240 241 243 244 245 246 247 248 249 249 251 253 255 256 257 259 261 264 267 270 273 275 277 279 281 283 287 290 293 296 299 302 305 307 309 311 313 314 316 317 318
243 242 241 240 241 243 244 245 246 247 248 249 250 251 254 255 256 258 260 262 264 266 269 271 273 276 278 281 283 286 289 292 295 298 301 303 306 309 311 312 314 316 317 318
244 243 242 242 242 244 246 247 248 249 250 251 251 252 254 256 258 260 261 263 264 266 267 269 271 274 276 279 282 284 287 291 294 297 300 302 305 308 310 312 314 316 317 318
247 245 244 243 244 246 248 250 250 251 252 253 254 255 256 257 259 261 262 263 265 266 267 269 271 273 276 278 281 283 286 290 293 296 299 302 305 308 310 312 314 316 317 318
248 248 247 246 246 247 248 250 251 252 253 254 254 255 256 258 259 260 262 263 265 266 266 268 271 272 275 278 280 283 286 289 292 295 298 300 303 307 309 312 314 316 317 318
250 250 250 248 247 247 248 250 252 252 253 254 254 255 257 258 259 261 263 265 267 267 268 270 272 273 275 277 280 283 286 289 292 294 297 299 303 306 309 311 314 315 317 318
251 251 252 251 249 248 249 251 251 252 253 254 254 255 258 260 261 262 263 265 267 269 270 272 274 275 277 278 281 284 287 289 291 294 296 299 302 304 307 310 312 315 317 318
251 251 251 251 250 251 253 254 255 255 256 257 257 259 261 263 264 263 264 266 268 270 272 274 275 276 278 278 280 283 286 288 290 292 295 297 300 303 306 309 312 314 316 318
256 258 258 258 258 259 259 260 260 260 261 261 261 262 263 265 266 267 268 269 270 272 273 275 276 276 277 278 281 283 285 287 289 292 294 297 300 303 305 308 311 313 315 318
260 261 262 263 264 265 266 266 267 267 266 266 266 266 267 268 269 269 269 270 271 273 274 275 276 277 279 280 281 283 285 287 289 292 294 297 299 302 304 307 310 312 315 318
260 262 262 264 266 268 270 271 271 272 272 271 270 270 270 271 271 271 271 271 271 273 274 275 276 277 278 280 281 282 284 285 288 290 293 295 298 301 303 306 309 312 315 318
Height
5643 5645 5648 5650 5652 5655 5658 5661 5663 5665 5667 5669 5671 5673 5674 5675 5676 5677 5677 5678 5678 5677 5677 5676 5675 5674 5672 5669 5666 5662 5657 5653 5647 5641 5634 5627 5620 5614 5608 5604 5600 5598 5598 5598
5641 5643 5645 5648 5650 5652 5655 5657 5659 5661 5663 5665 5666 5667 5669 5670 5671 5671 5672 5672 5672 5671 5670 5669 5668 5667 5665 5662 5659 5655 5651 5646 5640 5634 5628 5621 5615 5609 5604 5599 5596 5594 5593 5593
5639 5641 5643 5646 5648 5649 5652 5654 5656 5657 5660 5660 5662 5663 5664 5665 5665 5666 5666 5666 5666 5665 5664 5663 5662 5661 5659 5656 5653 5649 5645 5640 5635 5629 5624 5618 5612 5606 5601 5597 5594 5592 5591 5590
5636 5639 5641 5645 5644 5646 5648 5650 5651 5653 5654 5656 5657 5658 5659 5660 5660 5661 5661 5661 5660 5659 5659 5658 5656 5655 5653 5650 5647 5644 5640 5635 5630 5626 5621 5615 5610 5605 5601 5597 5594 5591 5590 5589
5633 5635 5637 5640 5640 5642 5644 5646 5647 5648 5650 5651 5652 5654 5655 5655 5656 5656 5656 5656 5655 5654 5653 5652 5651 5650 5648 5645 5643 5639 5636 5631 5627 5622 5618 5613 5609 5604 5600 5597 5594 5591 5590 5589
5629 5631 5633 5636 5637 5638 5641 5642 5643 5644 5646 5647 5648 5650 5651 5651 5651 5651 5651 5651 5650 5649 5648 5647 5646 5645 5643 5641 5638 5635 5632 5628 5624 5620 5616 5612 5608 5603 5600 5596 5593 5591 5590 5589
5625 5626 5629 5631 5632 5634 5638 5639 5639 5640 5641 5643 5644 5646 5647 5646 5647 5647 5647 5646 5646 5645 5644 5643 5641 5640 5638 5636 5634 5631 5628 5625 5621 5618 5614 5610 5606 5603 5599 5596 5593 5591 5589 5588
5620 5623 5627 5627 5628 5631 5633 5633 5634 5636 5637 5639 5640 5641 5642 5642 5642 5642 5642 5642 5641 5640 5639 5638 5637 5635 5633 5631 5629 5627 5624 5621 5618 5615 5612 5608 5605 5602 5598 5596 5593 5590 5588 5586
5617 5620 5621 5622 5624 5626 5627 5629 5630 5632 5633 5634 5635 5636 5637 5638 5638 5638 5637 5637 5636 5636 5635 5633 5632 5631 5629 5627 5625 5623 5621 5618 5615 5612 5609 5606 5603 5600 5597 5594 5591 5589 5586 5584
5612 5614 5615 5617 5619 5621 5623 5624 5626 5627 5629 5630 5631 5632 5633 5633 5633 5633 5633 5632 5632 5631 5630 5629 5628 5626 5625 5623 5621 5619 5617 5615 5612 5609 5606 5603 5600 5597 5595 5592 5589 5586 5583 5581
5607 5609 5611 5613 5614 5616 5618 5620 5621 5623 5624 5625 5626 5627 5628 5628 5628 5628 5628 5628 5627 5626 5626 5625 5624 5622 5621 5619 5618 5616 5614 5611 5609 5606 5603 5600 5597 5594 5591 5589 5586 5583 5580 5576
5602 5604 5606 5608 5609 5611 5613 5615 5616 5618 5619 5620 5621 5622 5623 5623 5624 5624 5623 5623 5622 5622 5621 5620 5619 5618 5617 5615 5614 5612 5610 5608 5605 5602 5600 5597 5594 5591 5588 5585 5581 5578 5575 5571
5596 5598 5600 5602 5604 5606 5607 5609 5611 5612 5613 5615 5616 5617 5618 5618 5619 5619 5618 5618 5618 5617 5617 5616 5615 5614 5613 5611 5610 5608 5606 5603 5601 5598 5596 5593 5590 5587 5584 5580 5577 5573 5570 5566
5590 5592 5594 5596 5598 5600 5602 5603 5605 5606 5608 5609 5610 5611 5612 5613 5613 5613 5613 5613 5613 5612 5612 5611 5610 5609 5608 5607 5605 5603 5601 5599 5596 5594 5591 5588 5585 5582 5579 5575 5572 5568 5564 5559
5584 5586 5588 5590 5592 5593 5595 5597 5599 5600 5602 5603 5604 5605 5606 5607 5607 5608 5608 5608 5607 5607 5606 5606 5605 5604 5603 5601 5600 5598 5596 5594 5591 5589 5586 5583 5580 5576 5573 5569 5565 5561 5557 5552
5578 5580 5581 5583 5585 5587 5589 5591 5593 5594 5595 5597 5598 5599 5600 5601 5601 5602 5602 5602 5602 5602 5601 5600 5599 5598 5597 5595 5594 5592 5590 5588 5586 5583 5580 5577 5574 5570 5567 5563 5559 5554 5550 5545
5571 5573 5575 5577 5579 5581 5582 5584 5586 5587 5589 5590 5591 5592 5593 5594 5595 5595 5595 5596 5595 5595 5595 5594 5593 5592 5591 5589 5588 5586 5584 5582 5580 5577 5574 5571 5568 5564 5560 5556 5552 5547 5543 5537
5565 5567 5569 5571 5572 5574 5576 5577 5579 5580 5582 5583 5584 5585 5586 5587 5588 5588 5588 5589 5589 5588 5588 5587 5586 5586 5584 5583 5581 5580 5578 5575 5573 5570 5568 5564 5561 5557 5553 5549 5545 5540 5535 5530
5559 5560 5562 5564 5566 5568 5569 5571 5572 5573 5575 5576 5577 5578 5579 5580 5580 5581 5581 5581 5581 5581 5581 5580 5579 5578 5577 5576 5575 5573 5571 5569 5566 5564 5561 5557 5554 5550 5546 5542 5537 5532 5527 5522
5553 5555 5556 5558 5559 5561 5563 5564 5565 5567 5568 5569 5570 5571 5572 5572 5573 5573 5574 5574 5574 5574 5573 5573 5572 5571 5570 5569 5567 5566 5564 5561 5559 5556 5553 5550 5547 5543 5539 5534 5530 5524 5519 5513
5548 5549 5550 5552 5553 5554 5556 5557 5559 5560 5561 5562 5563 5564 5564 5565 5565 5566 5566 5566 5566 5566 5565 5565 5564 5563 5562 5561 5560 5558 5556 5554 5551 5549 5546 5542 5539 5535 5531 5526 5522 5516 5511 5505
5543 5544 5545 5546 5547 5548 5549 5551 5552 5553 5554 5555 5555 5556 5557 5558 5558 5558 5558 5558 5558 5558 5558 5557 5556 5555 5554 5553 5552 5550 5548 5546 5543 5541 5538 5534 5531 5527 5523 5518 5513 5508 5502 5496
5538 5539 5540 5540 5541 5542 5543 5544 5545 5546 5547 5548 5548 5549 5550 5550 5550 5551 5551 5551 5551 5550 5550 5549 5548 5547 5546 5545 5543 5542 5540 5538 5535 5532 5529 5526 5522 5518 5514 5510 5505 5500 5494 5488
5534 5534 5535 5535 5536 5537 5537 5538 5539 5539 5540 5541 5541 5542 5542 5543 5543 5543 5543 5543 5543 5542 5542 5541 5540 5539 5538 5536 5535 5533 5531 5529 5526 5524 5521 5517 5514 5510 5506 5501 5496 5491 5485 5479
5529 5529 5530 5530 5531 5531 5531 5532 5532 5533 5533 5534 5534 5534 5535 5535 5535 5535 5534 5534 5534 5533 5532 5532 5531 5530 5529 5527 5526 5524 5522 5520 5517 5515 5512 5508 5505 5501 5497 5492 5487 5482 5476 5470
5523 5523 5524 5524 5524 5525 5525 5525 5525 5525 5526 5526 5526 5526 5526 5526 5526 5526 5525 5525 5524 5524 5523 5522 5521 5520 5519 5518 5516 5514 5512 5510 5508 5505 5502 5499 5496 5492 5488 5483 5479 5473 5468 5462
5516 5516 5517 5517 5517 5517 5518 5518 5518 5517 5517 5517 5517 5517 5517 5517 5516 5516 5515 5515 5514 5514 5513 5512 5511 5510 5509 5507 5506 5504 5502 5500 5498 5495 5493 5490 5486 5483 5479 5475 5470 5465 5459 5453